"SCET","ELECTRON CYCLOTRON FREQUENCY","MEASURED FREQUENCY VALUE","ELECTRON NUMBER DENSITY","JOVIGRAPHIC DISTANCE","SYS_III_LONGITUDE","JOVIGRAPHIC MAGNETIC LATITUDE","JSE X","JSE Y","JSE Z","MAGNETIC FIELD CHECK","DATA QUALITY INDEX","MEASURED FREQUENCY","ELECTRON PLASMA FREQUENCY","L=0 FREQUENCY","R=0 FREQUENCY","UPPER HYBRID FREQUENCY","FULL-WIDTH AT HALF-MAXIMUM"
,"[Hz]","[Hz]","[cm-3]","[Rj where 1Rj=71492km]","[Degrees]","[Degrees]","[Rj where 1Rj=71492km]","[Rj where 1Rj=71492km]","[Rj where 1Rj=71492km]","[1 if Yes, 0 if No]",,,"[Hz]","[Hz]","[Hz]","[Hz]","[Hz or -1 Floater]"
1979-186T00:04:16.500,139.549,5094.000,3.218e-01,71.328,311.772,2.463,64.369,-30.244,5.439,1,0," p",5094.000,5024.703,5164.252,5095.911,
1979-186T00:04:17.500,144.837,5094.000,3.218e-01,71.328,311.782,2.461,64.369,-30.243,5.439,1,0," p",5094.000,5022.096,5166.933,5096.059,
1979-186T00:04:18.500,150.335,4950.000,3.038e-01,71.328,311.792,2.460,64.369,-30.243,5.439,1,0," p",4950.000,4875.403,5025.738,4952.282,
1979-186T00:04:19.500,156.767,4302.000,2.295e-01,71.327,311.802,2.458,64.369,-30.243,5.439,1,0," p",4302.000,4224.331,4381.098,4304.855,
1979-186T00:04:20.500,162.725,4158.000,2.144e-01,71.327,311.812,2.456,64.369,-30.243,5.439,1,0," p",4158.000,4077.433,4240.159,4161.183,
1979-186T00:04:21.500,164.898,4140.000,2.125e-01,71.327,311.822,2.455,64.369,-30.243,5.439,1,0," p",4140.000,4058.372,4223.270,4143.283,
1979-186T00:04:22.500,167.024,3996.000,1.980e-01,71.327,311.832,2.453,64.369,-30.243,5.439,1,0," p",3996.000,3913.361,4080.385,3999.489,
1979-186T00:04:23.500,168.949,3996.000,1.980e-01,71.327,311.842,2.452,64.368,-30.243,5.439,1,0," p",3996.000,3912.418,4081.367,3999.570,
1979-186T00:04:24.500,170.198,3942.000,1.927e-01,71.327,311.852,2.450,64.368,-30.243,5.439,1,0," p",3942.000,3857.819,4028.017,3945.672,
1979-186T00:04:25.500,169.629,3978.000,1.962e-01,71.327,311.862,2.449,64.368,-30.243,5.439,1,0," p",3978.000,3894.090,4063.719,3981.615,
1979-186T00:04:26.500,168.794,3852.000,1.840e-01,71.326,311.872,2.447,64.368,-30.243,5.439,1,0," p",3852.000,3768.527,3937.322,3855.697,
1979-186T00:04:27.500,167.467,3888.000,1.875e-01,71.326,311.882,2.445,64.368,-30.242,5.439,1,0," p",3888.000,3805.168,3972.635,3891.605,
1979-186T00:04:28.500,167.108,3978.000,1.962e-01,71.326,311.892,2.444,64.368,-30.242,5.439,1,0," p",3978.000,3895.323,4062.431,3981.508,
1979-186T00:04:29.500,168.027,3834.000,1.823e-01,71.326,311.902,2.442,64.368,-30.242,5.439,1,0," p",3834.000,3750.907,3918.934,3837.680,
1979-186T00:04:30.500,169.549,3834.000,1.823e-01,71.326,311.912,2.441,64.368,-30.242,5.439,1,0," p",3834.000,3750.163,3919.712,3837.747,
1979-186T00:04:31.500,171.649,3708.000,1.705e-01,71.326,311.922,2.439,64.368,-30.242,5.439,1,0," p",3708.000,3623.169,3794.818,3711.971,
1979-186T00:04:32.500,172.318,3690.000,1.688e-01,71.326,311.932,2.437,64.368,-30.242,5.439,1,0," p",3690.000,3604.847,3777.165,3694.021,
1979-186T00:04:33.500,171.998,3654.000,1.656e-01,71.325,311.942,2.436,64.367,-30.242,5.439,1,0," p",3654.000,3569.013,3741.011,3658.046,
1979-186T00:04:34.500,171.872,3690.000,1.688e-01,71.325,311.952,2.434,64.367,-30.242,5.439,1,0," p",3690.000,3605.064,3776.937,3694.000,
1979-186T00:04:35.500,171.843,3708.000,1.705e-01,71.325,311.962,2.433,64.367,-30.242,5.439,1,0," p",3708.000,3623.074,3794.917,3711.980,
1979-186T00:04:36.500,171.409,3708.000,1.705e-01,71.325,311.972,2.431,64.367,-30.242,5.439,1,0," p",3708.000,3623.286,3794.695,3711.960,
1979-186T00:04:37.500,170.840,3654.000,1.656e-01,71.325,311.983,2.430,64.367,-30.242,5.439,1,0," p",3654.000,3569.578,3740.418,3657.991,
1979-186T00:04:38.500,170.768,3780.000,1.772e-01,71.325,311.993,2.428,64.367,-30.241,5.439,1,0," p",3780.000,3695.580,3866.348,3783.855,
1979-186T00:04:39.500,170.797,3870.000,1.857e-01,71.325,312.003,2.426,64.367,-30.241,5.439,1,0," p",3870.000,3785.544,3956.341,3873.767,
1979-186T00:04:40.500,169.604,3834.000,1.823e-01,71.324,312.013,2.425,64.367,-30.241,5.439,1,0," p",3834.000,3750.136,3919.740,3837.750,
1979-186T00:04:41.500,168.292,3816.000,1.806e-01,71.324,312.023,2.423,64.367,-30.241,5.439,1,0," p",3816.000,3732.782,3901.074,3819.709,
1979-186T00:04:42.500,168.569,3942.000,1.927e-01,71.324,312.033,2.422,64.366,-30.241,5.439,1,0," p",3942.000,3858.616,4027.186,3945.603,
1979-186T00:04:43.500,168.860,3888.000,1.875e-01,71.324,312.043,2.420,64.366,-30.241,5.439,1,0," p",3888.000,3804.487,3973.347,3891.665,
1979-186T00:04:44.500,169.137,3870.000,1.857e-01,71.324,312.053,2.418,64.366,-30.241,5.439,1,0," p",3870.000,3786.355,3955.492,3873.694,
1979-186T00:04:45.500,169.297,3870.000,1.857e-01,71.324,312.063,2.417,64.366,-30.241,5.439,1,0," p",3870.000,3786.277,3955.574,3873.701,
1979-186T00:04:46.500,168.801,3906.000,1.892e-01,71.324,312.073,2.415,64.366,-30.241,5.439,1,0," p",3906.000,3822.511,3991.312,3909.646,
1979-186T00:04:47.500,167.999,3924.000,1.909e-01,71.323,312.083,2.414,64.366,-30.241,5.439,1,0," p",3924.000,3840.899,4008.898,3927.595,
1979-186T00:04:48.500,166.176,3942.000,1.927e-01,71.323,312.093,2.412,64.366,-30.240,5.439,1,0," p",3942.000,3859.788,4025.964,3945.501,
1979-186T00:04:49.500,164.671,3924.000,1.909e-01,71.323,312.103,2.411,64.366,-30.240,5.439,1,0," p",3924.000,3842.528,4007.199,3927.454,
1979-186T00:04:50.500,163.868,3942.000,1.927e-01,71.323,312.113,2.409,64.366,-30.240,5.439,1,0," p",3942.000,3860.917,4024.785,3945.405,
1979-186T00:04:51.500,163.483,3942.000,1.927e-01,71.323,312.123,2.407,64.365,-30.240,5.439,1,0," p",3942.000,3861.106,4024.589,3945.388,
1979-186T00:04:52.500,163.745,3960.000,1.945e-01,71.323,312.133,2.406,64.365,-30.240,5.439,1,0," p",3960.000,3878.974,4042.719,3963.384,
1979-186T00:04:53.500,164.138,3960.000,1.945e-01,71.323,312.143,2.404,64.365,-30.240,5.439,1,1," p",3960.000,3878.781,4042.919,3963.400,
1979-186T00:04:55.500,165.241,3834.000,1.823e-01,71.322,312.163,2.401,64.365,-30.240,5.439,1,0," p",3834.000,3752.270,3917.510,3837.559,
1979-186T00:04:56.500,165.825,3762.000,1.755e-01,71.322,312.173,2.400,64.365,-30.240,5.439,1,0," p",3762.000,3680.001,3845.826,3765.653,
1979-186T00:04:57.500,165.506,3870.000,1.857e-01,71.322,312.183,2.398,64.365,-30.240,5.439,1,0," p",3870.000,3788.132,3953.638,3873.537,
1979-186T00:04:58.500,164.660,3906.000,1.892e-01,71.322,312.193,2.396,64.365,-30.240,5.439,1,0," p",3906.000,3824.538,3989.198,3909.469,
1979-186T00:04:59.500,164.976,3852.000,1.840e-01,71.322,312.203,2.395,64.365,-30.239,5.438,1,0," p",3852.000,3770.395,3935.371,3855.531,
1979-186T00:05:00.500,165.763,3834.000,1.823e-01,71.322,312.214,2.393,64.364,-30.239,5.438,1,0," p",3834.000,3752.014,3917.777,3837.582,
1979-186T00:05:01.500,167.358,3762.000,1.755e-01,71.322,312.224,2.392,64.364,-30.239,5.438,1,0," p",3762.000,3679.251,3846.610,3765.721,
1979-186T00:05:02.500,169.167,3672.000,1.672e-01,71.321,312.234,2.390,64.364,-30.239,5.438,1,0," p",3672.000,3588.391,3757.558,3675.895,
1979-186T00:05:03.500,171.420,3546.000,1.559e-01,71.321,312.244,2.388,64.364,-30.239,5.438,1,0," p",3546.000,3461.326,3632.746,3550.141,
1979-186T00:05:04.500,173.738,3420.000,1.450e-01,71.321,312.254,2.387,64.364,-30.239,5.438,1,0," p",3420.000,3334.234,3507.972,3424.410,
1979-186T00:05:05.500,176.889,3240.000,1.302e-01,71.321,312.264,2.385,64.364,-30.239,5.438,1,0," p",3240.000,3152.762,3329.651,3244.825,
1979-186T00:05:06.500,180.014,2844.000,1.003e-01,71.321,312.274,2.384,64.364,-30.239,5.438,1,1," p",2844.000,2755.417,2935.431,2849.691,
1979-186T00:05:07.500,180.976,2700.000,9.040e-02,71.321,312.284,2.382,64.364,-30.239,5.438,1,1," p",2700.000,2611.028,2792.004,2706.058,
1979-186T00:05:08.500,181.827,2682.000,8.920e-02,71.321,312.294,2.381,64.364,-30.239,5.438,1,1," p",2682.000,2592.627,2774.454,2688.156,
1979-186T00:05:09.500,181.783,2646.000,8.682e-02,71.320,312.304,2.379,64.363,-30.239,5.438,1,1," p",2646.000,2556.669,2738.452,2652.237,
1979-186T00:05:10.500,181.489,2700.000,9.040e-02,71.320,312.314,2.377,64.363,-30.238,5.438,1,1," p",2700.000,2610.780,2792.269,2706.093,
1979-186T00:05:11.500,180.133,2772.000,9.529e-02,71.320,312.324,2.376,64.363,-30.238,5.438,1,1," p",2772.000,2683.396,2863.529,2777.847,
1979-186T00:05:12.500,178.970,3006.000,1.121e-01,71.320,312.334,2.374,64.363,-30.238,5.438,1,1," p",3006.000,2917.847,3096.817,3011.323,
1979-186T00:05:13.500,178.328,3150.000,1.230e-01,71.320,312.344,2.373,64.363,-30.238,5.438,1,0," p",3150.000,3062.098,3240.426,3155.044,
1979-186T00:05:14.500,178.040,3150.000,1.230e-01,71.320,312.354,2.371,64.363,-30.238,5.438,1,0," p",3150.000,3062.238,3240.278,3155.027,
1979-186T00:05:15.500,178.405,3114.000,1.202e-01,71.320,312.364,2.370,64.363,-30.238,5.438,1,0," p",3114.000,3026.075,3204.480,3119.106,
1979-186T00:05:16.500,178.813,3078.000,1.175e-01,71.319,312.374,2.368,64.363,-30.238,5.438,1,0," p",3078.000,2989.892,3168.705,3083.190,
1979-186T00:05:17.500,179.280,3078.000,1.175e-01,71.319,312.384,2.366,64.363,-30.238,5.438,1,0," p",3078.000,2989.665,3168.945,3083.217,
1979-186T00:05:18.500,179.381,3078.000,1.175e-01,71.319,312.394,2.365,64.362,-30.238,5.438,1,0," p",3078.000,2989.616,3168.997,3083.223,
1979-186T00:05:19.500,179.133,3078.000,1.175e-01,71.319,312.404,2.363,64.362,-30.238,5.438,1,0," p",3078.000,2989.736,3168.869,3083.208,
1979-186T00:05:20.500,179.265,3096.000,1.189e-01,71.319,312.414,2.362,64.362,-30.237,5.438,1,0," p",3096.000,3007.665,3186.930,3101.186,
1979-186T00:05:21.500,179.658,3114.000,1.202e-01,71.319,312.424,2.360,64.362,-30.237,5.438,1,0," p",3114.000,3025.466,3205.124,3119.178,
1979-186T00:05:22.500,179.837,3078.000,1.175e-01,71.319,312.435,2.359,64.362,-30.237,5.438,1,0," p",3078.000,2989.395,3169.232,3083.249,
1979-186T00:05:23.500,179.910,3078.000,1.175e-01,71.318,312.445,2.357,64.362,-30.237,5.438,1,0," p",3078.000,2989.359,3169.269,3083.253,
1979-186T00:05:24.500,179.238,3006.000,1.121e-01,71.318,312.455,2.355,64.362,-30.237,5.438,1,0," p",3006.000,2917.717,3096.955,3011.339,
1979-186T00:05:25.500,178.319,3024.000,1.134e-01,71.318,312.465,2.354,64.362,-30.237,5.438,1,0," p",3024.000,2936.155,3114.474,3029.253,
1979-186T00:05:26.500,178.600,3006.000,1.121e-01,71.318,312.475,2.352,64.362,-30.237,5.438,1,0," p",3006.000,2918.026,3096.626,3011.301,
1979-186T00:05:27.500,179.125,2970.000,1.094e-01,71.318,312.485,2.351,64.361,-30.237,5.438,1,0," p",2970.000,2881.788,3060.913,2975.397,
1979-186T00:05:28.500,180.275,2916.000,1.054e-01,71.318,312.495,2.349,64.361,-30.237,5.438,1,1," p",2916.000,2827.255,3007.530,2921.567,
1979-186T00:05:29.500,181.485,2736.000,9.283e-02,71.318,312.505,2.347,64.361,-30.237,5.438,1,1," p",2736.000,2646.762,2828.247,2742.012,
1979-186T00:05:30.500,183.230,2628.000,8.564e-02,71.317,312.515,2.346,64.361,-30.237,5.438,1,1," p",2628.000,2537.981,2721.211,2634.380,
1979-186T00:05:31.500,184.912,2520.000,7.875e-02,71.317,312.525,2.344,64.361,-30.236,5.438,1,1," p",2520.000,2429.240,2614.151,2526.775,
1979-186T00:05:32.500,185.699,2502.000,7.763e-02,71.317,312.535,2.343,64.361,-30.236,5.438,1,3," p",2502.000,2410.873,2596.572,2508.882,
1979-186T00:05:33.500,186.298,2466.000,7.541e-02,71.317,312.545,2.341,64.361,-30.236,5.438,1,3," p",2466.000,2374.610,2560.908,2473.027,
1979-186T00:05:34.500,185.831,2466.000,7.541e-02,71.317,312.555,2.340,64.361,-30.236,5.438,1,3," p",2466.000,2374.834,2560.665,2472.992,
1979-186T00:05:35.500,185.512,2502.000,7.763e-02,71.317,312.565,2.338,64.361,-30.236,5.438,1,0," p",2502.000,2410.963,2596.475,2508.868,
1979-186T00:05:36.500,185.687,2484.000,7.652e-02,71.317,312.575,2.336,64.361,-30.236,5.438,1,0," p",2484.000,2392.891,2578.578,2490.931,
1979-186T00:05:37.500,185.754,2484.000,7.652e-02,71.316,312.585,2.335,64.360,-30.236,5.438,1,0," p",2484.000,2392.859,2578.613,2490.936,
1979-186T00:05:38.500,185.579,2484.000,7.652e-02,71.316,312.595,2.333,64.360,-30.236,5.438,1,0," p",2484.000,2392.943,2578.522,2490.923,
1979-186T00:05:39.500,185.552,2502.000,7.763e-02,71.316,312.605,2.332,64.360,-30.236,5.438,1,0," p",2502.000,2410.944,2596.496,2508.871,
1979-186T00:05:40.500,185.756,2502.000,7.763e-02,71.316,312.615,2.330,64.360,-30.236,5.438,1,0," p",2502.000,2410.845,2596.601,2508.886,
1979-186T00:05:41.500,185.919,2520.000,7.875e-02,71.316,312.625,2.329,64.360,-30.236,5.438,1,0," p",2520.000,2428.754,2614.674,2526.849,
1979-186T00:05:43.500,186.040,2502.000,7.763e-02,71.316,312.645,2.325,64.360,-30.235,5.438,1,0," p",2502.000,2410.708,2596.749,2508.907,
1979-186T00:05:44.500,185.952,2502.000,7.763e-02,71.316,312.655,2.324,64.360,-30.235,5.438,1,0," p",2502.000,2410.751,2596.703,2508.901,
1979-186T00:05:45.500,185.708,2502.000,7.763e-02,71.315,312.665,2.322,64.360,-30.235,5.438,1,0," p",2502.000,2410.868,2596.576,2508.883,
1979-186T00:05:46.500,185.373,2502.000,7.763e-02,71.315,312.676,2.321,64.359,-30.235,5.438,1,0," p",2502.000,2411.030,2596.403,2508.858,
1979-186T00:05:47.500,184.768,2520.000,7.875e-02,71.315,312.686,2.319,64.359,-30.235,5.438,1,3," p",2520.000,2429.309,2614.077,2526.765,
1979-186T00:05:48.500,184.053,2502.000,7.763e-02,71.315,312.696,2.318,64.359,-30.235,5.438,1,3," p",2502.000,2411.665,2595.718,2508.760,
1979-186T00:05:49.500,182.958,2520.000,7.875e-02,71.315,312.706,2.316,64.359,-30.235,5.438,1,3," p",2520.000,2430.181,2613.139,2526.633,
1979-186T00:05:50.500,181.762,2538.000,7.988e-02,71.315,312.716,2.314,64.359,-30.235,5.438,1,3," p",2538.000,2448.746,2630.508,2544.500,
1979-186T00:05:51.500,180.757,2556.000,8.102e-02,71.315,312.726,2.313,64.359,-30.235,5.438,1,3," p",2556.000,2467.219,2647.976,2562.384,
1979-186T00:05:52.500,179.780,2556.000,8.102e-02,71.314,312.736,2.311,64.359,-30.234,5.438,1,3," p",2556.000,2467.690,2647.470,2562.315,
1979-186T00:05:53.500,179.815,2556.000,8.102e-02,71.314,312.746,2.310,64.359,-30.234,5.438,1,3," p",2556.000,2467.673,2647.488,2562.317,
1979-186T00:05:54.500,179.903,2574.000,8.216e-02,71.314,312.756,2.308,64.359,-30.234,5.438,1,3," p",2574.000,2485.620,2665.523,2580.279,
1979-186T00:05:55.500,180.005,2556.000,8.102e-02,71.314,312.766,2.307,64.358,-30.234,5.438,1,3," p",2556.000,2467.582,2647.587,2562.331,
1979-186T00:05:56.500,180.101,2538.000,7.988e-02,71.314,312.776,2.305,64.358,-30.234,5.438,1,0," p",2538.000,2449.547,2629.647,2544.382,
1979-186T00:05:57.500,180.145,2538.000,7.988e-02,71.314,312.786,2.303,64.358,-30.234,5.438,1,0," p",2538.000,2449.525,2629.670,2544.385,
1979-186T00:05:58.500,180.233,2538.000,7.988e-02,71.314,312.796,2.302,64.358,-30.234,5.438,1,0," p",2538.000,2449.483,2629.716,2544.391,
1979-186T00:05:59.500,180.510,2520.000,7.875e-02,71.313,312.806,2.300,64.358,-30.234,5.438,1,0," p",2520.000,2431.361,2611.871,2526.457,
1979-186T00:06:00.500,180.669,2520.000,7.875e-02,71.313,312.816,2.299,64.358,-30.234,5.438,1,3," p",2520.000,2431.284,2611.953,2526.468,
1979-186T00:06:01.500,180.508,2556.000,8.102e-02,71.313,312.826,2.297,64.358,-30.234,5.438,1,3," p",2556.000,2467.339,2647.847,2562.366,
1979-186T00:06:02.500,180.511,2592.000,8.331e-02,71.313,312.836,2.296,64.358,-30.234,5.438,1,3," p",2592.000,2503.315,2683.826,2598.278,
1979-186T00:06:03.500,180.818,2556.000,8.102e-02,71.313,312.846,2.294,64.358,-30.233,5.438,1,3," p",2556.000,2467.189,2648.007,2562.388,
1979-186T00:06:04.500,180.866,2538.000,7.988e-02,71.313,312.856,2.292,64.357,-30.233,5.438,1,3," p",2538.000,2449.178,2630.044,2544.436,
1979-186T00:06:05.500,180.575,2520.000,7.875e-02,71.313,312.866,2.291,64.357,-30.233,5.438,1,3," p",2520.000,2431.329,2611.904,2526.461,
1979-186T00:06:06.500,180.365,2538.000,7.988e-02,71.312,312.876,2.289,64.357,-30.233,5.438,1,3," p",2538.000,2449.419,2629.784,2544.401,
1979-186T00:06:07.500,180.234,2520.000,7.875e-02,71.312,312.886,2.288,64.357,-30.233,5.438,1,3," p",2520.000,2431.494,2611.728,2526.437,
1979-186T00:06:08.500,180.568,2502.000,7.763e-02,71.312,312.897,2.286,64.357,-30.233,5.438,1,3," p",2502.000,2413.344,2593.912,2508.507,
1979-186T00:06:09.500,181.224,2502.000,7.763e-02,71.312,312.907,2.285,64.357,-30.233,5.438,1,3," p",2502.000,2413.028,2594.252,2508.555,
1979-186T00:06:10.500,181.411,2484.000,7.652e-02,71.312,312.917,2.283,64.357,-30.233,5.438,1,3," p",2484.000,2394.950,2576.361,2490.615,
1979-186T00:06:11.500,181.367,2502.000,7.763e-02,71.312,312.927,2.281,64.357,-30.233,5.438,1,3," p",2502.000,2412.959,2594.326,2508.565,
1979-186T00:06:12.500,182.035,2502.000,7.763e-02,71.312,312.937,2.280,64.357,-30.233,5.437,1,3," p",2502.000,2412.637,2594.672,2508.613,
1979-186T00:06:13.500,182.939,2502.000,7.763e-02,71.311,312.947,2.278,64.356,-30.232,5.437,1,3," p",2502.000,2412.202,2595.141,2508.679,
1979-186T00:06:14.500,182.850,2484.000,7.652e-02,71.311,312.957,2.277,64.356,-30.232,5.437,1,3," p",2484.000,2394.257,2577.107,2490.721,
1979-186T00:06:15.500,182.558,2484.000,7.652e-02,71.311,312.967,2.275,64.356,-30.232,5.437,1,3," p",2484.000,2394.397,2576.956,2490.699,
1979-186T00:06:16.500,181.270,2484.000,7.652e-02,71.311,312.977,2.274,64.356,-30.232,5.437,1,3," p",2484.000,2395.018,2576.288,2490.605,
1979-186T00:06:17.500,179.884,2484.000,7.652e-02,71.311,312.987,2.272,64.356,-30.232,5.437,1,3," p",2484.000,2395.686,2575.570,2490.505,
1979-186T00:06:18.500,179.222,2448.000,7.431e-02,71.311,312.997,2.270,64.356,-30.232,5.437,1,3," p",2448.000,2360.029,2539.250,2454.552,
1979-186T00:06:19.500,178.633,2484.000,7.652e-02,71.311,313.007,2.269,64.356,-30.232,5.437,1,3," p",2484.000,2396.289,2574.922,2490.415,
1979-186T00:06:20.500,178.924,2484.000,7.652e-02,71.310,313.017,2.267,64.356,-30.232,5.437,1,3," p",2484.000,2396.148,2575.073,2490.436,
1979-186T00:06:21.500,179.302,2448.000,7.431e-02,71.310,313.027,2.266,64.356,-30.232,5.437,1,3," p",2448.000,2359.990,2539.292,2454.558,
1979-186T00:06:22.500,180.162,2484.000,7.652e-02,71.310,313.037,2.264,64.355,-30.232,5.437,1,3," p",2484.000,2395.552,2575.714,2490.525,
1979-186T00:06:23.500,180.888,2484.000,7.652e-02,71.310,313.047,2.263,64.355,-30.232,5.437,1,3," p",2484.000,2395.202,2576.090,2490.578,
1979-186T00:06:24.500,181.165,2484.000,7.652e-02,71.310,313.057,2.261,64.355,-30.231,5.437,1,3," p",2484.000,2395.069,2576.234,2490.598,
1979-186T00:06:25.500,181.261,2484.000,7.652e-02,71.310,313.067,2.259,64.355,-30.231,5.437,1,3," p",2484.000,2395.022,2576.283,2490.605,
1979-186T00:06:26.500,180.954,2484.000,7.652e-02,71.310,313.077,2.258,64.355,-30.231,5.437,1,3," p",2484.000,2395.170,2576.124,2490.582,
1979-186T00:06:27.500,180.671,2466.000,7.541e-02,71.309,313.087,2.256,64.355,-30.231,5.437,1,3," p",2466.000,2377.319,2557.990,2472.610,
1979-186T00:06:28.500,180.423,2466.000,7.541e-02,71.309,313.097,2.255,64.355,-30.231,5.437,1,3," p",2466.000,2377.438,2557.861,2472.592,
1979-186T00:06:29.500,179.976,2466.000,7.541e-02,71.309,313.107,2.253,64.355,-30.231,5.437,1,3," p",2466.000,2377.653,2557.629,2472.559,
1979-186T00:06:30.500,179.305,2448.000,7.431e-02,71.309,313.117,2.252,64.355,-30.231,5.437,1,3," p",2448.000,2359.989,2539.294,2454.558,
1979-186T00:06:31.500,178.867,2448.000,7.431e-02,71.309,313.128,2.250,64.354,-30.231,5.437,1,3," p",2448.000,2360.200,2539.067,2454.526,
1979-186T00:06:32.500,178.619,2484.000,7.652e-02,71.309,313.138,2.248,64.354,-30.231,5.437,1,3," p",2484.000,2396.295,2574.915,2490.414,
1979-186T00:06:33.500,178.905,2484.000,7.652e-02,71.309,313.148,2.247,64.354,-30.231,5.437,1,3," p",2484.000,2396.158,2575.063,2490.434,
1979-186T00:06:34.500,179.503,2466.000,7.541e-02,71.309,313.158,2.245,64.354,-30.231,5.437,1,3," p",2466.000,2377.881,2557.384,2472.524,
1979-186T00:06:35.500,180.329,2466.000,7.541e-02,71.308,313.168,2.244,64.354,-30.230,5.437,1,3," p",2466.000,2377.483,2557.812,2472.584,
1979-186T00:06:36.500,181.248,2466.000,7.541e-02,71.308,313.178,2.242,64.354,-30.230,5.437,1,3," p",2466.000,2377.041,2558.289,2472.652,
1979-186T00:06:37.500,181.913,2466.000,7.541e-02,71.308,313.188,2.241,64.354,-30.230,5.437,1,3," p",2466.000,2376.720,2558.633,2472.701,
1979-186T00:06:38.500,182.511,2466.000,7.541e-02,71.308,313.198,2.239,64.354,-30.230,5.437,1,3," p",2466.000,2376.432,2558.943,2472.745,
1979-186T00:06:39.500,182.486,2466.000,7.541e-02,71.308,313.208,2.237,64.354,-30.230,5.437,1,3," p",2466.000,2376.444,2558.930,2472.743,
1979-186T00:06:40.500,182.370,2466.000,7.541e-02,71.308,313.218,2.236,64.354,-30.230,5.437,1,3," p",2466.000,2376.500,2558.870,2472.734,
1979-186T00:06:41.500,181.892,2466.000,7.541e-02,71.308,313.228,2.234,64.353,-30.230,5.437,1,3," p",2466.000,2376.730,2558.623,2472.699,
1979-186T00:06:42.500,181.406,2466.000,7.541e-02,71.307,313.238,2.233,64.353,-30.230,5.437,1,3," p",2466.000,2376.965,2558.371,2472.663,
1979-186T00:06:43.500,181.202,2484.000,7.652e-02,71.307,313.248,2.231,64.353,-30.230,5.437,1,3," p",2484.000,2395.051,2576.253,2490.600,
1979-186T00:06:44.500,180.944,2466.000,7.541e-02,71.307,313.258,2.230,64.353,-30.230,5.437,1,3," p",2466.000,2377.187,2558.131,2472.630,
1979-186T00:06:45.500,180.258,2466.000,7.541e-02,71.307,313.268,2.228,64.353,-30.229,5.437,1,3," p",2466.000,2377.518,2557.775,2472.579,
1979-186T00:06:46.500,179.737,2466.000,7.541e-02,71.307,313.278,2.226,64.353,-30.229,5.437,1,3," p",2466.000,2377.769,2557.506,2472.542,
1979-186T00:06:47.500,179.912,2466.000,7.541e-02,71.307,313.288,2.225,64.353,-30.229,5.437,1,3," p",2466.000,2377.684,2557.596,2472.554,
1979-186T00:06:48.500,180.226,2484.000,7.652e-02,71.307,313.298,2.223,64.353,-30.229,5.437,1,3," p",2484.000,2395.521,2575.747,2490.530,
1979-186T00:06:49.500,180.911,2466.000,7.541e-02,71.306,313.308,2.222,64.353,-30.229,5.437,1,3," p",2466.000,2377.203,2558.114,2472.627,
1979-186T00:06:50.500,181.474,2466.000,7.541e-02,71.306,313.318,2.220,64.352,-30.229,5.437,1,3," p",2466.000,2376.932,2558.406,2472.668,
1979-186T00:06:51.500,181.809,2466.000,7.541e-02,71.306,313.328,2.219,64.352,-30.229,5.437,1,3," p",2466.000,2376.771,2558.579,2472.693,
1979-186T00:06:52.500,181.736,2466.000,7.541e-02,71.306,313.338,2.217,64.352,-30.229,5.437,1,3," p",2466.000,2376.806,2558.542,2472.688,
1979-186T00:06:53.500,181.124,2286.000,6.480e-02,71.306,313.348,2.216,64.352,-30.229,5.437,1,3," p",2286.000,2197.231,2378.355,2293.164,
1979-186T00:06:54.500,181.085,2322.000,6.686e-02,71.306,313.359,2.214,64.352,-30.229,5.437,1,3," p",2322.000,2233.222,2414.307,2329.050,
1979-186T00:06:55.500,181.595,2322.000,6.686e-02,71.306,313.369,2.212,64.352,-30.229,5.437,1,3," p",2322.000,2232.977,2414.572,2329.090,
1979-186T00:06:56.500,181.563,2286.000,6.480e-02,71.305,313.379,2.211,64.352,-30.228,5.437,1,3," p",2286.000,2197.020,2378.583,2293.199,
1979-186T00:06:57.500,181.154,2286.000,6.480e-02,71.305,313.389,2.209,64.352,-30.228,5.437,1,3," p",2286.000,2197.217,2378.371,2293.167,
1979-186T00:06:58.500,181.010,2286.000,6.480e-02,71.305,313.399,2.208,64.352,-30.228,5.437,1,3," p",2286.000,2197.286,2378.296,2293.155,
1979-186T00:06:59.500,180.996,2322.000,6.686e-02,71.305,313.409,2.206,64.351,-30.228,5.437,1,3," p",2322.000,2233.265,2414.261,2329.043,
1979-186T00:07:00.500,181.397,2322.000,6.686e-02,71.305,313.419,2.205,64.351,-30.228,5.437,1,3," p",2322.000,2233.072,2414.469,2329.075,
1979-186T00:07:01.500,181.937,2322.000,6.686e-02,71.305,313.429,2.203,64.351,-30.228,5.437,1,3," p",2322.000,2232.813,2414.750,2329.117,
1979-186T00:07:02.500,181.471,2286.000,6.480e-02,71.305,313.439,2.201,64.351,-30.228,5.437,1,3," p",2286.000,2197.064,2378.535,2293.192,
1979-186T00:07:03.500,180.800,2322.000,6.686e-02,71.304,313.449,2.200,64.351,-30.228,5.437,1,3," p",2322.000,2233.359,2414.159,2329.028,
1979-186T00:07:04.500,180.926,2322.000,6.686e-02,71.304,313.459,2.198,64.351,-30.228,5.437,1,3," p",2322.000,2233.299,2414.225,2329.038,
1979-186T00:07:05.500,181.130,2322.000,6.686e-02,71.304,313.469,2.197,64.351,-30.228,5.437,1,3," p",2322.000,2233.200,2414.331,2329.054,
1979-186T00:07:06.500,180.337,2322.000,6.686e-02,71.304,313.479,2.195,64.351,-30.227,5.437,1,3," p",2322.000,2233.582,2413.918,2328.992,